Location: Bonnesvalyn
(49.1218°N, 3.3177°E)
Time: 05:20:55
(UTC+00:00)

Cosmos 2154 Rocket - Pass Details

Date: 09 February 2023
Orbit: 965 x 997 km, 82.9° (Epoch: 30 March)

Event Time Altitude Azimuth Distance (km) Brightness Sun altitude
Rises 19:08:48 0° 354° (N) 3,730 7.2 -22.0°
Reaches altitude 10° 19:11:29 10° 1° (N) 2,774 6.4 -22.5°
Enters shadow 19:17:20 44° 67° (ENE) 1,342 4.3 -23.4°
